#timestamp,LO_Frequency,Hit,StdDev 
1546642815.1,286047000.4,N
1546642816.0,286047000.4,N
1546642835.8,286047000.0,N
1546642855.7,286046998.3,N
1546642875.5,286046998.3,N
1546642895.3,286046999.6,N
1546642915.2,286046996.5,N
1546642935.9,286046997.3,N
1546642955.7,286046997.1,N
1546642975.6,286046999.6,N
1546642995.4,286046997.0,N
1546643015.2,286046997.8,N
1546643035.1,286046995.0,N
1546643036.0,286046995.0,N
1546643055.8,286046999.5,N
1546643075.7,286046997.0,N
1546643095.5,286046998.2,N
1546643115.3,286046999.7,N
1546643135.2,286047000.2,N
1546643155.0,286047002.8,N
1546643155.9,286047002.8,N
1546643175.7,286047002.3,N
1546643195.6,286047001.4,N
1546643215.4,286047002.4,N
1546643235.3,286046999.7,N
1546643255.1,286047000.8,N
1546643256.0,286047000.8,N
1546643275.8,286047000.4,N
1546643295.7,286047000.6,N
1546643315.5,286047001.1,N
1546643335.3,286047000.0,N
1546643355.2,286047001.1,N
1546643375.0,286046998.1,N
1546643375.9,286046998.1,N
1546643395.8,286047000.9,N
1546643415.6,286047002.7,N
1546643435.4,286047001.7,N
1546643455.3,286047001.9,N
1546643475.1,286047004.3,N
1546643495.8,286047002.2,N
1546643515.7,286047002.1,N
1546643535.5,286047003.9,N
1546643555.4,286047004.3,N
1546643575.2,286047001.3,N
1546643595.0,286047004.2,N
1546643595.9,286047004.2,N
1546643615.8,286047004.1,N
1546643635.6,286047004.4,N
1546643655.4,286047003.8,N
1546643675.3,286047004.0,N
1546643695.1,286047001.7,N
1546643715.9,286047001.3,N
1546643735.7,286047004.4,N
1546643755.5,286047001.5,N
1546643775.4,286047004.3,N
1546643795.2,286047002.4,N
1546643815.0,286047003.2,N
1546643815.9,286047003.2,N
1546643835.8,286047004.0,N
1546643855.6,286047002.2,N
1546643875.5,286047004.2,N
1546643895.3,286047004.4,N
1546643915.1,286047001.6,N
1546643935.9,286047000.2,N
1546643955.7,286047002.6,N
1546643975.6,286046999.8,N
1546643995.4,286047001.5,N
1546644015.2,286047000.4,N
1546644035.1,286046999.8,N
1546644036.0,286046999.8,N
1546644055.8,286047003.5,N
1546644075.6,286047001.4,N
1546644095.5,286047003.7,N
1546644115.3,286047001.4,N
1546644135.2,286047001.4,N
1546644155.0,286047001.5,N
1546644155.9,286047001.5,N
1546644175.7,286047002.8,N
1546644195.6,286047000.1,N
1546644215.4,286047000.2,N
1546644235.3,286046998.4,N
1546644255.1,286047000.6,N
1546644256.0,286047000.6,N
1546644275.8,286047002.8,N
1546644295.7,286047000.6,N
1546644315.5,286047000.1,N
1546644335.4,286047000.6,N
1546644355.2,286046999.7,N
1546644375.0,286046999.9,N
1546644375.9,286046999.9,N
1546644395.8,286046999.7,N
1546644415.6,286047000.9,N
1546644435.4,286047001.1,N
1546644455.3,286047000.0,N
1546644475.1,286047002.1,N
1546644495.9,286047001.4,N
1546644515.7,286046999.9,N
1546644535.5,286047001.7,N
1546644555.4,286047004.4,Y
1546644575.2,286047004.3,P
1546644595.0,286047001.7,N
1546644595.9,286047001.7,N
1546644615.8,286047002.2,N
1546644635.6,286047004.8,Y
1546644655.5,286047002.1,P
1546644675.3,286047001.6,P
1546644695.1,286047000.5,N
1546644715.9,286047000.7,N
1546644735.7,286047000.1,N
1546644755.5,286047000.6,N
1546644775.4,286046999.9,N
1546644795.2,286047001.8,N
1546644815.1,286047004.2,Y
1546644816.0,286047004.2,P
1546644835.8,286046998.5,N
1546644855.6,286046998.3,N
1546644875.5,286046998.9,N
1546644895.3,286047000.8,N
1546644915.1,286047001.1,N
1546644935.9,286046998.7,N
1546644955.7,286046998.2,N
1546644975.6,286046999.4,N
1546644995.4,286046998.2,N
1546645045.3,286046996.6,E
1546645055.2,286047000.6,N
1546645075.0,286047002.2,P
1546645075.9,286047002.2,N
1546645095.8,286047002.8,Y
1546645115.6,286046999.0,P
1546645135.4,286046999.3,N
1546645155.3,286046997.2,N
1546645175.1,286046999.4,N
1546645195.9,286046996.8,N
1546645215.7,286046998.5,N
1546645235.5,286046998.3,N
1546645255.4,286046999.0,N
1546645275.2,286047001.2,N
1546645295.0,286046998.5,N
1546645295.9,286046998.5,N
1546645315.8,286046996.9,N
1546645335.6,286046998.3,N
1546645355.5,286046998.6,N
1546645375.3,286046998.3,N
1546645395.1,286046998.7,N
1546645445.9,286047000.6,E
1546645455.8,286047001.1,N
1546645475.7,286046998.8,P
1546645495.5,286046999.3,N
1546645515.3,286046999.3,N
1546645535.2,286046999.6,N
1546645555.9,286046998.7,N
1546645605.8,286046996.9,E
1546645615.7,286046998.5,N
1546645635.5,286047002.0,P
1546645655.4,286047001.7,N
1546645675.2,286047001.9,N
1546645695.0,286047004.3,N
1546645695.9,286047004.3,N
1546645715.8,286047002.0,N
1546645735.6,286047002.5,N
1546645755.5,286047002.7,N
1546645775.3,286047000.5,N
1546645795.1,286047002.7,N
1546645815.9,286047002.6,N
1546645835.7,286047003.3,N
1546645855.5,286047005.3,Y
1546645875.4,286047001.9,P
1546645895.2,286047002.6,P
1546645915.1,286047002.7,P
1546645916.0,286047002.7,Y
1546645935.8,286046999.6,P
1546645955.6,286046996.9,N
1546645975.5,286046996.5,N
1546645995.3,286046997.4,N
1546646015.2,286046997.3,N
1546646035.9,286046996.9,N
1546646055.7,286046996.9,N
1546646075.6,286046997.3,N
1546646095.4,286046997.9,N
1546646115.2,286046997.1,N
1546646135.1,286046997.8,N
1546646136.0,286046997.8,N
1546646155.8,286046997.4,N
1546646175.7,286047000.7,N
1546646195.5,286046998.8,N
1546646215.3,286046999.4,N
1546646235.2,286046998.5,N
1546646255.0,286046998.9,N
1546646255.9,286046998.9,N
1546646275.8,286047000.3,N
1546646295.6,286046998.8,N
1546646315.4,286046996.6,N
1546646335.3,286046997.7,N
1546646355.1,286046999.6,N
1546646356.0,286046999.6,N
1546646375.8,286046996.9,N
1546646395.7,286046999.6,N
